User: anonymous   Login
Location: Unspecified
(0.0000°N, 0.0000°E)
Time: 23:40:22
(UTC+00:00)
Language:

TATIANA 2 - Orbit

View from above orbital plane
View from above orbital plane
View from above satellite
View from above satellite

Ground track
Ground track

The orbit data is extracted from the following two-line orbital elements,

1 35868U 09049D   24176.46046162  .00000243  00000-0  12584-3 0  9993
2 35868  98.6142 137.8273 0003496 194.7773 165.3304 14.23544437766832
Epoch (UTC): 24 June 2024 11:03:03
Eccentricity: 0.0003496
inclination: 98.6142°
perigee height: 811 km
apogee height: 816 km
right ascension of ascending node: 137.8273°
argument of perigee: 194.7773°
revolutions per day: 14.23544437
mean anomaly at epoch: 165.3304°
orbit number at epoch: 76683

The dashed part of the orbit path shows where the satellite is in the earth's shadow,  

DLR